• In Hungary
  • List of Countries
  • For 7 days
  • Water Temperature
  • Satellite Maps
  • Weather Map
  • News
  • Weather Widgets
  • user-avatar
    Login

    Hourly Weather Tashliyar

    Today, 19 September, Wednesday

    Time Temperature Precipitation Wind Pressure Humidity
    00:00 +12°C° 0.6 mm 4 mps 745 mmHg 93%
    01:00 +12°C° 0.6 mm 4 mps 744 mmHg 94%
    02:00 +11°C° 0.5 mm 4 mps 744 mmHg 92%
    03:00 +11°C° 0.5 mm 4 mps 744 mmHg 91%
    04:00 +10°C° 0 mm 3 mps 744 mmHg 90%
    05:00 +10°C° 0.2 mm 3 mps 743 mmHg 90%
    06:00 +10°C° 0.2 mm 3 mps 743 mmHg 90%
    07:00 +8°C° 0.2 mm 4 mps 743 mmHg 90%
    08:00 +10°C° 0.3 mm 4 mps 743 mmHg 90%
    09:00 +9°C° 0.3 mm 5 mps 743 mmHg 89%
    10:00 +9°C° 0 mm 5 mps 742 mmHg 88%
    11:00 +10°C° 0.3 mm 5 mps 743 mmHg 85%
    12:00 +10°C° 0.3 mm 5 mps 743 mmHg 82%
    13:00 +12°C° 0.3 mm 5 mps 743 mmHg 79%
    14:00 +11°C° 0.3 mm 6 mps 743 mmHg 78%
    15:00 +13°C° 0.3 mm 6 mps 744 mmHg 77%
    16:00 +13°C° 0.3 mm 6 mps 744 mmHg 76%
    17:00 +11°C° 0.3 mm 6 mps 744 mmHg 80%
    18:00 +10°C° 0.3 mm 6 mps 744 mmHg 84%
    19:00 +10°C° 0.3 mm 6 mps 745 mmHg 88%
    20:00 +9°C° 0.3 mm 7 mps 745 mmHg 88%
    21:00 +9°C° 0.3 mm 7 mps 745 mmHg 88%
    22:00 +9°C° 0.3 mm 7 mps 745 mmHg 88%
    23:00 +8°C° 0.1 mm 7 mps 746 mmHg 87%

    Tomorrow, 20 September, Thursday

    Time Temperature Precipitation Wind Pressure Humidity
    00:00 +8°C° 0.1 mm 6 mps 746 mmHg 87%
    01:00 +8°C° 0.1 mm 6 mps 746 mmHg 86%
    02:00 +7°C° 0 mm 6 mps 746 mmHg 87%
    03:00 +7°C° 0 mm 6 mps 746 mmHg 88%
    04:00 +5°C° 0 mm 6 mps 747 mmHg 88%
    05:00 +5°C° 0 mm 6 mps 747 mmHg 89%
    06:00 +5°C° 0 mm 6 mps 747 mmHg 90%
    07:00 +4°C° 0 mm 6 mps 747 mmHg 91%
    08:00 +5°C° 0 mm 6 mps 748 mmHg 86%
    09:00 +8°C° 0 mm 6 mps 748 mmHg 81%
    10:00 +9°C° 0 mm 6 mps 748 mmHg 76%
    11:00 +10°C° 0 mm 6 mps 748 mmHg 70%
    12:00 +11°C° 0 mm 6 mps 748 mmHg 64%
    13:00 +13°C° 0 mm 6 mps 748 mmHg 58%
    14:00 +14°C° 0 mm 6 mps 748 mmHg 58%
    15:00 +14°C° 0 mm 6 mps 749 mmHg 57%
    16:00 +14°C° 0 mm 5 mps 749 mmHg 56%
    17:00 +13°C° 0 mm 4 mps 749 mmHg 62%
    18:00 +11°C° 0 mm 4 mps 749 mmHg 68%
    19:00 +10°C° 0 mm 3 mps 749 mmHg 74%
    20:00 +9°C° 0 mm 3 mps 749 mmHg 76%
    21:00 +9°C° 0 mm 3 mps 750 mmHg 78%
    22:00 +8°C° 0 mm 3 mps 750 mmHg 80%
    23:00 +8°C° 0 mm 2 mps 750 mmHg 81%

    Day after tomorrow, 21 September, Friday

    Time Temperature Precipitation Wind Pressure Humidity
    00:00 +7°C° 0 mm 2 mps 750 mmHg 83%
    01:00 +7°C° 0 mm 2 mps 750 mmHg 84%
    02:00 +7°C° 0 mm 2 mps 750 mmHg 85%
    03:00 +6°C° 0 mm 2 mps 751 mmHg 86%
    04:00 +6°C° 0 mm 2 mps 751 mmHg 87%
    05:00 +6°C° 0 mm 2 mps 751 mmHg 87%
    06:00 +6°C° 0 mm 2 mps 752 mmHg 87%
    07:00 +6°C° 0 mm 2 mps 752 mmHg 87%
    08:00 +8°C° 0 mm 3 mps 752 mmHg 80%
    09:00 +9°C° 0 mm 3 mps 752 mmHg 73%
    10:00 +11°C° 0 mm 3 mps 753 mmHg 66%
    11:00 +12°C° 0 mm 4 mps 753 mmHg 62%
    12:00 +14°C° 0 mm 4 mps 753 mmHg 57%
    13:00 +15°C° 0 mm 4 mps 753 mmHg 53%
    14:00 +15°C° 0 mm 4 mps 753 mmHg 53%
    15:00 +15°C° 0 mm 4 mps 754 mmHg 53%
    16:00 +15°C° 0 mm 4 mps 754 mmHg 54%
    17:00 +14°C° 0 mm 3 mps 754 mmHg 60%
    18:00 +14°C° 0 mm 2 mps 755 mmHg 67%
    19:00 +12°C° 0 mm 2 mps 755 mmHg 74%
    20:00 +12°C° 0 mm 2 mps 755 mmHg 77%
    21:00 +11°C° 0 mm 1 mps 756 mmHg 80%
    22:00 +11°C° 0 mm 1 mps 756 mmHg 83%
    23:00 +11°C° 0 mm 1 mps 756 mmHg 86%

    22 September, Saturday

    Time Temperature Precipitation Wind Pressure Humidity
    00:00 +11°C° 0 mm 1 mps 756 mmHg 88%
    01:00 +11°C° 0 mm 1 mps 757 mmHg 91%
    02:00 +11°C° 0 mm 1 mps 757 mmHg 92%
    03:00 +10°C° 0 mm 2 mps 757 mmHg 93%
    04:00 +10°C° 0 mm 2 mps 757 mmHg 95%
    05:00 +10°C° 0 mm 2 mps 757 mmHg 95%
    06:00 +10°C° 0 mm 2 mps 758 mmHg 96%
    07:00 +10°C° 0 mm 2 mps 758 mmHg 96%
    08:00 +12°C° 0 mm 2 mps 758 mmHg 94%
    09:00 +14°C° 0 mm 2 mps 758 mmHg 91%
    10:00 +15°C° 0 mm 2 mps 758 mmHg 88%
    11:00 +16°C° 0.1 mm 2 mps 758 mmHg 86%
    12:00 +17°C° 0.1 mm 3 mps 758 mmHg 83%
    13:00 +18°C° 0.1 mm 3 mps 758 mmHg 81%
    14:00 +19°C° 0.1 mm 3 mps 758 mmHg 79%
    15:00 +20°C° 0.1 mm 3 mps 758 mmHg 77%
    16:00 +20°C° 0.1 mm 3 mps 758 mmHg 75%
    17:00 +19°C° 0 mm 3 mps 758 mmHg 80%
    18:00 +18°C° 0 mm 2 mps 758 mmHg 85%
    19:00 +17°C° 0 mm 2 mps 758 mmHg 90%
    20:00 +16°C° 0 mm 2 mps 758 mmHg 90%
    21:00 +16°C° 0 mm 2 mps 758 mmHg 91%
    22:00 +16°C° 0 mm 1 mps 758 mmHg 92%
    23:00 +15°C° 0 mm 2 mps 758 mmHg 92%

    23 September, Sunday

    Time Temperature Precipitation Wind Pressure Humidity
    00:00 +15°C° 0 mm 2 mps 758 mmHg 93%
    01:00 +15°C° 0 mm 2 mps 759 mmHg 94%
    02:00 +14°C° 0 mm 2 mps 759 mmHg 94%
    03:00 +14°C° 0 mm 2 mps 759 mmHg 94%
    04:00 +14°C° 0 mm 2 mps 759 mmHg 94%
    05:00 +14°C° 0 mm 2 mps 759 mmHg 94%
    06:00 +14°C° 0 mm 2 mps 759 mmHg 94%
    07:00 +14°C° 0 mm 2 mps 759 mmHg 94%
    08:00 +14°C° 0 mm 3 mps 759 mmHg 88%
    09:00 +17°C° 0 mm 3 mps 759 mmHg 83%
    10:00 +18°C° 0 mm 3 mps 759 mmHg 77%
    11:00 +20°C° 0 mm 4 mps 759 mmHg 73%
    12:00 +21°C° 0 mm 4 mps 758 mmHg 69%
    13:00 +22°C° 0 mm 4 mps 758 mmHg 64%
    14:00 +22°C° 0 mm 4 mps 758 mmHg 64%
    15:00 +22°C° 0 mm 4 mps 758 mmHg 64%
    16:00 +22°C° 0 mm 4 mps 758 mmHg 63%
    17:00 +20°C° 0 mm 3 mps 758 mmHg 69%
    18:00 +19°C° 0 mm 3 mps 757 mmHg 75%
    19:00 +17°C° 0 mm 3 mps 757 mmHg 81%
    20:00 +17°C° 0 mm 3 mps 757 mmHg 82%
    21:00 +16°C° 0 mm 3 mps 757 mmHg 84%
    22:00 +16°C° 0 mm 3 mps 757 mmHg 85%
    23:00 +14°C° 0 mm 3 mps 757 mmHg 85%

    24 September, Monday

    Time Temperature Precipitation Wind Pressure Humidity
    00:00 +14°C° 0 mm 3 mps 757 mmHg 85%
    01:00 +14°C° 0 mm 3 mps 756 mmHg 85%
    02:00 +14°C° 0 mm 3 mps 756 mmHg 84%
    03:00 +13°C° 0 mm 3 mps 756 mmHg 83%
    04:00 +13°C° 0 mm 3 mps 756 mmHg 82%
    05:00 +13°C° 0 mm 4 mps 756 mmHg 82%
    06:00 +13°C° 0 mm 4 mps 756 mmHg 81%
    07:00 +13°C° 0 mm 4 mps 756 mmHg 81%
    08:00 +14°C° 0 mm 5 mps 755 mmHg 74%
    09:00 +16°C° 0 mm 5 mps 755 mmHg 67%
    10:00 +19°C° 0 mm 6 mps 755 mmHg 61%
    11:00 +20°C° 0 mm 6 mps 755 mmHg 55%
    12:00 +21°C° 0 mm 6 mps 755 mmHg 50%
    13:00 +22°C° 0 mm 6 mps 755 mmHg 44%
    14:00 +22°C° 0 mm 5 mps 755 mmHg 46%
    15:00 +22°C° 0 mm 5 mps 755 mmHg 48%
    16:00 +22°C° 0 mm 4 mps 755 mmHg 49%
    17:00 +20°C° 0 mm 4 mps 755 mmHg 54%
    18:00 +19°C° 0 mm 3 mps 755 mmHg 60%
    19:00 +17°C° 0 mm 3 mps 755 mmHg 65%
    20:00 +16°C° 0 mm 3 mps 755 mmHg 68%
    21:00 +16°C° 0 mm 3 mps 755 mmHg 70%
    22:00 +14°C° 0 mm 3 mps 755 mmHg 73%
    23:00 +14°C° 0 mm 3 mps 755 mmHg 75%
    Show more